^^
Saratoga-Weather Station Historical Data
Daily Summary for April 14, 2021 Units:  English    Metric   Both
Daily Weekly Monthly Yearly Custom
  High: Low: Average:
Temperature: 62.8 °F 55.6 °F 58.5 °F
Dew Point: 49.6 °F 48 °F 48.7 °F
Humidity: 77% 61% 70%
Wind Speed: 2mph 0mph 0.1mph
Wind Gust: 2mph - -
Wind- - SW
Pressure: 30.2 in 30.2 in -
Precipitation: 0 in    
Historical Graphs
 
 
Tabular Data for April 14, 2021
Time Temperature Dew Point Pressure Wind Wind Speed Wind Gust Humidity Rainfall Rate (Hourly) solar
00:01 62.8 °F 49.6 °F 30.2 in Calm   1 mph 62% 0 in 0 W/m2
00:06 62.2 °F 48.6 °F 30.2 in SW 0.9 mph 1 mph 61% 0 in 0 W/m2
00:11 62.1 °F 49.3 °F 30.2 in Calm   2 mph 63% 0 in 0 W/m2
00:16 61.9 °F 49.1 °F 30.2 in Calm   1 mph 63% 0 in 0 W/m2
00:21 61.5 °F 49.3 °F 30.2 in Calm     64% 0 in 0 W/m2
00:26 61.3 °F 49.1 °F 30.2 in Calm   1 mph 64% 0 in 0 W/m2
00:31 61.2 °F 49.3 °F 30.2 in Calm     65% 0 in 0 W/m2
00:36 60.8 °F 49.5 °F 30.2 in Calm   2 mph 66% 0 in 0 W/m2
00:41 60.4 °F 49.1 °F 30.2 in Calm   1 mph 66% 0 in 0 W/m2
00:46 60.3 °F 48.9 °F 30.2 in Calm     66% 0 in 0 W/m2
00:51 60.1 °F 49.1 °F 30.2 in Calm   1 mph 67% 0 in 0 W/m2
00:56 59.7 °F 48.7 °F 30.2 in Calm   2 mph 67% 0 in 0 W/m2
01:01 59.5 °F 48.6 °F 30.2 in SW 0.9 mph 1 mph 67% 0 in 0 W/m2
01:06 59.4 °F 48.7 °F 30.2 in Calm     68% 0 in 0 W/m2
01:11 59.4 °F 49.1 °F 30.2 in Calm     69% 0 in 0 W/m2
01:16 59.2 °F 49.1 °F 30.2 in Calm   1 mph 69% 0 in 0 W/m2
01:21 58.8 °F 49.1 °F 30.2 in Calm   1 mph 70% 0 in 0 W/m2
01:26 58.6 °F 48.9 °F 30.2 in SW 0.9 mph 2 mph 70% 0 in 0 W/m2
01:31 58.5 °F 48.7 °F 30.2 in Calm   2 mph 70% 0 in 0 W/m2
01:36 58.5 °F 48.7 °F 30.2 in Calm   1 mph 70% 0 in 0 W/m2
01:41 58.5 °F 49.1 °F 30.2 in Calm     71% 0 in 0 W/m2
01:46 58.3 °F 48.9 °F 30.2 in Calm     71% 0 in 0 W/m2
01:51 58.3 °F 48.9 °F 30.2 in Calm   2 mph 71% 0 in 0 W/m2
01:56 58.3 °F 48.9 °F 30.2 in Calm     71% 0 in 0 W/m2
02:01 58.1 °F 48.4 °F 30.2 in Calm   2 mph 70% 0 in 0 W/m2
02:06 57.9 °F 48.2 °F 30.2 in Calm   1 mph 70% 0 in 0 W/m2
02:11 57.9 °F 48.2 °F 30.2 in Calm   1 mph 70% 0 in 0 W/m2
02:16 58.1 °F 48.7 °F 30.2 in Calm     71% 0 in 0 W/m2
02:21 57.9 °F 48.6 °F 30.2 in Calm     71% 0 in 0 W/m2
02:26 57.9 °F 48.6 °F 30.2 in SW 2 mph 2 mph 71% 0 in 0 W/m2
02:31 57.7 °F 48.4 °F 30.2 in Calm     71% 0 in 0 W/m2
02:36 57.7 °F 48.4 °F 30.2 in Calm     71% 0 in 0 W/m2
02:41 57.7 °F 48.4 °F 30.2 in Calm     71% 0 in 0 W/m2
02:46 57.6 °F 48.6 °F 30.2 in Calm     72% 0 in 0 W/m2
02:51 57.4 °F 48 °F 30.2 in Calm     71% 0 in 0 W/m2
02:56 57.2 °F 48.2 °F 30.2 in Calm     72% 0 in 0 W/m2
03:01 57 °F 48 °F 30.2 in Calm     72% 0 in 0 W/m2
03:06 56.8 °F 48.2 °F 30.2 in Calm     73% 0 in 0 W/m2
03:11 56.7 °F 48 °F 30.2 in Calm     73% 0 in 0 W/m2
03:16 56.5 °F 48 °F 30.2 in Calm     73% 0 in 0 W/m2
03:21 56.5 °F 48.4 °F 30.2 in Calm     74% 0 in 0 W/m2
03:26 56.3 °F 48.2 °F 30.2 in SW 0.9 mph 1 mph 74% 0 in 0 W/m2
03:32 56.3 °F 48.6 °F 30.2 in Calm   1 mph 75% 0 in 0 W/m2
03:37 56.1 °F 48.4 °F 30.2 in Calm     75% 0 in 0 W/m2
03:42 55.9 °F 48.6 °F 30.2 in Calm     76% 0 in 0 W/m2
03:47 55.9 °F 48.2 °F 30.2 in Calm     75% 0 in 0 W/m2
03:52 55.8 °F 48.4 °F 30.2 in Calm   1 mph 76% 0 in 0 W/m2
03:57 55.8 °F 48.4 °F 30.2 in SW 0.9 mph 1 mph 76% 0 in 0 W/m2
04:02 55.8 °F 48.4 °F 30.2 in Calm   2 mph 76% 0 in 0 W/m2
04:07 55.6 °F 48.6 °F 30.2 in Calm   2 mph 77% 0 in 0 W/m2
Juneau County Weather
Compliments of Weather Underground - 2 mb